Other Public Products
Issued by NWS Charleston, SC

Current Version | Previous Version | Graphics & Text | Print | Product List | Glossary On
Versions: 1 2 3 4 5 6 7 8 9 10 11 12 13 14 15 16 17 18 19 20 21 22 23 24 25 26 27 28 29 30 31 32 33 34 35 36 37 38 39 40 41 42 43 44 45 46 47 48 49 50
000
FPUS82 KCHS 240227
OPUCHS

TEST...KCHS/KSAV Gateway Observations...TEST
National Weather Service Charleston SC
1000 PM EDT TUE MAY 23 2017

NOTE: "fair" indicates few or no clouds below 12,000 feet with no
significant weather and/or obstructions to visibility.

SCZ050-WAZ558-NCZ071-TXZ119-213-PAZ071-DCZ001-FLZ074-172-MI076-
NYZ176-178-MAZ016-IL014-TNZ027-NJZ106-GAZ044-MD014-240300-

...Gateway Observations for Charleston International...

CITY           SKY/WX    TMP DP  RH WIND       PRES   REMARKS
Chas Airport   LGT RAIN  69  66  90 S10       29.72F
Seattle        PTSUNNY   65  52  62 NE15      29.97S
Charlotte      CLOUDY    67  64  90 S6        29.71R
Dallas DFW     PTCLDY    64  52  64 NW15      29.88R
Dallas Love    PTCLDY    64  52  64 NW15      29.89R
Philladelphia  CLOUDY    62  52  69 E6        29.83S
Wash National  CLOUDY    60  56  86 NE6       29.78F
Baltimore      CLOUDY    61  60  97 E3        29.78F
Miami          PTCLDY    82  72  71 VRB7      29.92S
Detroit        CLOUDY    64  52  64 N6        29.72F
Newark         CLOUDY    63  51  65 S3        29.83S
Laguardia      CLOUDY    64  48  56 S9        29.83R
J F K          CLOUDY    60  53  77 S6        29.85R
Boston Logan   MOCLDY    58  54  86 S5        29.83F
Ft. Lauderdale MOCLDY    82  73  74 S6        29.91R
Chicago O`Hare LGT RAIN  57  54  89 SE9       29.70S
Chicago Midway CLOUDY    57  54  89 NE5       29.69F
Houston Bush   CLOUDY    68  62  81 N14       29.81R
Houston Hobby  CLOUDY    72  64  76 N21       29.81R THUNDER
Nashville      CLOUDY    71  57  61 CALM      29.66S
Atlanta        CLOUDY    70  65  84 SW7       29.71R

$$

GAZ044-118-TXZ119-213-NCZ071-DCZ001-MDZ014-506-PAZ021-071-NJZ106-
NYZ176-178-MAZ106-OHZ011-021-055-MIZ076-KYZ091-ILZ014-INZ047-
MNZ060-ONZ431-240300-

...Gateway Observations for Savannah International...

CITY           SKY/WX    TMP DP  RH WIND       PRES   REMARKS
Savannah Arpt  TSTM      74  70  87 S10       29.72F
Atlanta        CLOUDY    70  65  84 SW7       29.71R
Charlotte      CLOUDY    67  64  90 S6        29.71R
Dallas DFW     PTCLDY    64  52  64 NW15      29.88R
Houston Bush   CLOUDY    68  62  81 N14       29.81R
Wash National  CLOUDY    60  56  86 NE6       29.78F
Wash Dulles    CLOUDY    59  55  87 E8        29.79S
Baltimore      CLOUDY    61  60  97 E3        29.78F
Philadelphia   CLOUDY    62  52  69 E6        29.83S
Newark         CLOUDY    63  51  65 S3        29.83S
Laguardia      CLOUDY    64  48  56 S9        29.83R
J F K          CLOUDY    60  53  77 S6        29.85R
Boston         MOCLDY    58  54  86 S5        29.83F
Pittsburg      CLOUDY    65  52  62 SE9       29.74S
Akron          MOCLDY    66  50  56 E7        29.71F
Cleveland      CLOUDY    63  54  72 NE5       29.72F
Cincinnati     CLOUDY    68  54  60 SE8       29.65S
Columbus       CLOUDY    64  56  73 S6        29.67S
Detroit        CLOUDY    64  52  64 N6        29.72F
Chicago O`Hare LGT RAIN  57  54  89 SE9       29.70S
Minneapolis    MOCLDY    58  43  57 N10G21    29.81R
Indianapolis   CLOUDY    66  48  52 SW6       29.64F
Toronto Canada MOCLDY    64  54  68 NE8       29.76S

$$




USA.gov is the U.S. government's official web portal to all federal, state and local government web resources and services.